GLD1154 SCEL-SLVR

Flight info

Callsign GLD1154
Flight time 2h 33m
Altitude 33000
Route GUVOL UN527 JUA UW3 LAR UZ108 TUC UW5 SAL UL322 VIR DCT
Aircraft B738/M-SDFGIRY/S

Departure

Time 2026-04-26 01:05
Airport Comodoro Arturo Merino Benítez International Airport (SCEL)

Arrival

Time 2026-04-26 03:39
Airport Viru Viru International Airport (SLVR)
Time Latitude Longitude Altitude Speed Heading
2026-04-26 00:33 -33.39602 -70.79452 1559 ft 0 kts 177°
2026-04-26 00:53 -33.39591 -70.79453 1559 ft 4 kts 181°
2026-04-26 00:53 -33.39565 -70.79449 1559 ft 4 kts 196°
2026-04-26 00:54 -33.39540 -70.79437 1559 ft 4 kts 213°
2026-04-26 00:54 -33.39520 -70.79416 1558 ft 4 kts 235°
2026-04-26 00:54 -33.39510 -70.79392 1558 ft 1 kts 267°
2026-04-26 00:56 -33.39511 -70.79399 1558 ft 7 kts 267°
2026-04-26 00:57 -33.39516 -70.79522 1559 ft 17 kts 267°
2026-04-26 00:57 -33.39522 -70.79658 1559 ft 16 kts 267°
2026-04-26 00:57 -33.39527 -70.79790 1559 ft 16 kts 267°
2026-04-26 00:57 -33.39533 -70.79918 1559 ft 15 kts 267°
2026-04-26 00:58 -33.39529 -70.80039 1559 ft 14 kts 299°
2026-04-26 00:58 -33.39458 -70.80090 1558 ft 10 kts
2026-04-26 00:58 -33.39382 -70.80062 1558 ft 16 kts 14°
2026-04-26 00:58 -33.39237 -70.80061 1558 ft 23 kts 358°
2026-04-26 00:59 -33.39081 -70.80069 1558 ft 22 kts 357°
2026-04-26 00:59 -33.38929 -70.80078 1558 ft 21 kts 357°
2026-04-26 00:59 -33.38782 -70.80086 1558 ft 21 kts 357°
2026-04-26 00:59 -33.38617 -70.80095 1557 ft 24 kts 357°
2026-04-26 01:00 -33.38453 -70.80104 1557 ft 23 kts 357°
2026-04-26 01:00 -33.38295 -70.80112 1556 ft 22 kts 357°
2026-04-26 01:00 -33.38142 -70.80120 1556 ft 22 kts 357°
2026-04-26 01:00 -33.37997 -70.80127 1555 ft 21 kts 358°
2026-04-26 01:01 -33.37843 -70.80135 1555 ft 23 kts 358°
2026-04-26 01:01 -33.37684 -70.80143 1555 ft 23 kts 357°
2026-04-26 01:01 -33.37529 -70.80153 1554 ft 22 kts 357°
2026-04-26 01:01 -33.37379 -70.80161 1535 ft 21 kts 357°
2026-04-26 01:02 -33.37234 -70.80169 1554 ft 21 kts 357°
2026-04-26 01:02 -33.37113 -70.80230 1554 ft 18 kts 293°
2026-04-26 01:02 -33.37111 -70.80238 1554 ft 0 kts 292°
2026-04-26 01:03 -33.37107 -70.80285 1554 ft 13 kts 268°
2026-04-26 01:03 -33.37161 -70.80366 1554 ft 13 kts 201°
2026-04-26 01:03 -33.37211 -70.80370 1554 ft 0 kts 176°
2026-04-26 01:04 -33.37429 -70.80357 1556 ft 74 kts 177°
2026-04-26 01:05 -33.37903 -70.80330 1555 ft 127 kts 177°
2026-04-26 01:05 -33.38996 -70.80262 1856 ft 170 kts 178°
2026-04-26 01:05 -33.40094 -70.80307 3245 ft 143 kts 184°
2026-04-26 01:05 -33.41125 -70.80348 3860 ft 170 kts 177°
2026-04-26 01:06 -33.42404 -70.80283 4181 ft 199 kts 182°
2026-04-26 01:06 -33.43732 -70.80969 4365 ft 227 kts 225°
2026-04-26 01:06 -33.44400 -70.82735 4703 ft 246 kts 262°
2026-04-26 01:06 -33.44607 -70.84845 5072 ft 267 kts 260°
2026-04-26 01:07 -33.44944 -70.87077 5753 ft 275 kts 257°
2026-04-26 01:07 -33.45358 -70.89317 6657 ft 275 kts 256°
2026-04-26 01:07 -33.45802 -70.91548 7532 ft 276 kts 255°
2026-04-26 01:07 -33.46001 -70.93838 8303 ft 282 kts 277°
2026-04-26 01:08 -33.45318 -70.96031 8832 ft 289 kts 304°
2026-04-26 01:08 -33.43805 -70.97591 9394 ft 292 kts 334°
2026-04-26 01:08 -33.41819 -70.98141 10136 ft 299 kts 359°
2026-04-26 01:08 -33.39680 -70.98028 10526 ft 319 kts
2026-04-26 01:09 -33.37378 -70.97783 10728 ft 343 kts
2026-04-26 01:09 -33.34977 -70.97509 11169 ft 356 kts
2026-04-26 01:09 -33.32495 -70.97239 11857 ft 361 kts
2026-04-26 01:09 -33.29971 -70.96983 12597 ft 364 kts
2026-04-26 01:10 -33.27426 -70.96739 13284 ft 370 kts
2026-04-26 01:10 -33.24832 -70.96498 13881 ft 376 kts
2026-04-26 01:10 -33.22213 -70.96195 14475 ft 382 kts
2026-04-26 01:10 -33.19718 -70.95032 15088 ft 391 kts 30°
2026-04-26 01:11 -33.17468 -70.93170 15783 ft 395 kts 35°
2026-04-26 01:11 -33.15244 -70.91213 16347 ft 400 kts 35°
2026-04-26 01:11 -33.13018 -70.89248 16910 ft 405 kts 35°
2026-04-26 01:11 -33.10727 -70.87250 17504 ft 410 kts 34°
2026-04-26 01:12 -33.08374 -70.85227 18110 ft 414 kts 34°
2026-04-26 01:12 -33.06049 -70.83246 18647 ft 418 kts 33°
2026-04-26 01:12 -33.03670 -70.81210 19148 ft 423 kts 34°
2026-04-26 01:12 -33.01292 -70.79110 19653 ft 428 kts 35°
2026-04-26 01:13 -32.98930 -70.76995 20143 ft 432 kts 34°
2026-04-26 01:13 -32.96518 -70.74839 20655 ft 437 kts 34°
2026-04-26 01:13 -32.94064 -70.72658 21147 ft 441 kts 34°
2026-04-26 01:13 -32.91514 -70.70626 21626 ft 441 kts 21°
2026-04-26 01:14 -32.88616 -70.69538 22056 ft 433 kts
2026-04-26 01:14 -32.85626 -70.69286 22578 ft 431 kts 356°
2026-04-26 01:14 -32.82618 -70.69139 23058 ft 434 kts 355°
2026-04-26 01:14 -32.79616 -70.68994 23509 ft 439 kts 356°
2026-04-26 01:15 -32.76508 -70.68822 23941 ft 443 kts 356°
2026-04-26 01:15 -32.73463 -70.68630 24371 ft 445 kts 356°
2026-04-26 01:15 -32.70367 -70.68422 24819 ft 446 kts 356°
2026-04-26 01:15 -32.67253 -70.68211 25248 ft 447 kts 356°
2026-04-26 01:16 -32.64140 -70.67812 25662 ft 460 kts
2026-04-26 01:16 -32.61155 -70.66271 26034 ft 478 kts 29°
2026-04-26 01:16 -32.58620 -70.63657 26432 ft 490 kts 48°
2026-04-26 01:16 -32.56704 -70.60294 26838 ft 495 kts 57°
2026-04-26 01:17 -32.54940 -70.56765 27174 ft 499 kts 58°
2026-04-26 01:17 -32.53191 -70.53184 27480 ft 504 kts 58°
2026-04-26 01:17 -32.51416 -70.49580 27729 ft 508 kts 57°
2026-04-26 01:17 -32.49597 -70.45955 28048 ft 512 kts 57°
2026-04-26 01:18 -32.47753 -70.42339 28370 ft 514 kts 56°
2026-04-26 01:18 -32.45913 -70.38769 28740 ft 516 kts 56°
2026-04-26 01:18 -32.44033 -70.35134 29073 ft 520 kts 56°
2026-04-26 01:18 -32.42135 -70.31469 29377 ft 524 kts 56°
2026-04-26 01:19 -32.40230 -70.27784 29701 ft 526 kts 56°
2026-04-26 01:19 -32.38317 -70.24083 30085 ft 528 kts 55°
2026-04-26 01:19 -32.36440 -70.20352 30428 ft 528 kts 58°
2026-04-26 01:19 -32.34683 -70.16526 30726 ft 531 kts 59°
2026-04-26 01:20 -32.32990 -70.12636 31052 ft 532 kts 60°
2026-04-26 01:20 -32.31321 -70.08722 31327 ft 534 kts 60°
2026-04-26 01:20 -32.29647 -70.04796 31590 ft 535 kts 59°
2026-04-26 01:20 -32.27959 -70.00877 31890 ft 535 kts 59°
2026-04-26 01:21 -32.26254 -69.96965 32180 ft 536 kts 59°
2026-04-26 01:21 -32.24535 -69.93058 32440 ft 536 kts 58°
2026-04-26 01:21 -32.22808 -69.89153 32842 ft 535 kts 58°
2026-04-26 01:21 -32.21086 -69.85273 33173 ft 534 kts 58°
2026-04-26 01:22 -32.17631 -69.77502 33152 ft 533 kts 58°
2026-04-26 01:22 -32.14190 -69.69768 33162 ft 531 kts 58°
2026-04-26 01:23 -32.10752 -69.62053 33105 ft 530 kts 58°
2026-04-26 01:23 -32.07316 -69.54360 33088 ft 529 kts 57°
2026-04-26 01:24 -32.03905 -69.46732 33072 ft 524 kts 58°
2026-04-26 01:24 -32.00533 -69.39212 33057 ft 521 kts 58°
2026-04-26 01:25 -31.97155 -69.31696 33062 ft 519 kts 58°
2026-04-26 01:25 -31.93772 -69.24184 33033 ft 520 kts 58°
2026-04-26 01:26 -31.90377 -69.16661 33048 ft 521 kts 58°
2026-04-26 01:26 -31.86963 -69.09112 33058 ft 523 kts 57°
2026-04-26 01:27 -31.83539 -69.01554 33073 ft 524 kts 58°
2026-04-26 01:27 -31.80201 -68.94199 33058 ft 526 kts 58°
2026-04-26 01:28 -31.76751 -68.86613 33062 ft 526 kts 57°
2026-04-26 01:28 -31.73295 -68.79031 33064 ft 527 kts 57°
2026-04-26 01:29 -31.69847 -68.71480 33070 ft 528 kts 57°
2026-04-26 01:29 -31.66358 -68.63859 33075 ft 530 kts 57°
2026-04-26 01:30 -31.62864 -68.56236 33055 ft 530 kts 57°
2026-04-26 01:30 -31.59370 -68.48625 33057 ft 529 kts 56°
2026-04-26 01:31 -31.55060 -68.41834 33086 ft 511 kts 37°
2026-04-26 01:31 -31.49603 -68.36783 33089 ft 492 kts 23°
2026-04-26 01:32 -31.43860 -68.32512 33075 ft 492 kts 22°
2026-04-26 01:32 -31.38069 -68.28182 33070 ft 494 kts 23°
2026-04-26 01:33 -31.32291 -68.23810 33069 ft 495 kts 23°
2026-04-26 01:33 -31.26500 -68.19410 33080 ft 496 kts 23°
2026-04-26 01:34 -31.20699 -68.15008 33055 ft 498 kts 23°
2026-04-26 01:34 -31.14877 -68.10599 33061 ft 499 kts 23°
2026-04-26 01:35 -31.09036 -68.06184 33061 ft 500 kts 23°
2026-04-26 01:35 -31.03198 -68.01778 33054 ft 500 kts 23°
2026-04-26 01:36 -30.97526 -67.97502 33047 ft 500 kts 23°
2026-04-26 01:37 -30.88779 -67.90920 33053 ft 497 kts 22°
2026-04-26 01:37 -30.82992 -67.86576 33047 ft 497 kts 22°
2026-04-26 01:38 -30.77184 -67.82222 33056 ft 496 kts 22°
2026-04-26 01:38 -30.71369 -67.77869 33069 ft 497 kts 22°
2026-04-26 01:39 -30.65556 -67.73523 33072 ft 498 kts 22°
2026-04-26 01:39 -30.59734 -67.69175 33080 ft 496 kts 22°
2026-04-26 01:40 -30.53912 -67.64830 33058 ft 497 kts 22°
2026-04-26 01:40 -30.48098 -67.60508 33084 ft 496 kts 22°
2026-04-26 01:41 -30.42286 -67.56195 33083 ft 496 kts 22°
2026-04-26 01:41 -30.36466 -67.51879 33070 ft 497 kts 21°
2026-04-26 01:42 -30.30649 -67.47569 33064 ft 496 kts 21°
2026-04-26 01:42 -30.24826 -67.43260 33087 ft 497 kts 21°
2026-04-26 01:43 -30.19000 -67.38945 33090 ft 497 kts 21°
2026-04-26 01:43 -30.13167 -67.34650 33082 ft 498 kts 21°
2026-04-26 01:44 -30.07370 -67.30384 33081 ft 499 kts 21°
2026-04-26 01:44 -30.01496 -67.26065 33010 ft 501 kts 21°
2026-04-26 01:45 -29.95650 -67.21765 33081 ft 498 kts 21°
2026-04-26 01:45 -29.89782 -67.17463 33077 ft 500 kts 20°
2026-04-26 01:46 -29.83895 -67.13152 33075 ft 502 kts 20°
2026-04-26 01:46 -29.78022 -67.08858 33063 ft 505 kts 20°
2026-04-26 01:47 -29.72083 -67.04518 32980 ft 504 kts 20°
2026-04-26 01:47 -29.66205 -67.00212 33036 ft 499 kts 19°
2026-04-26 01:48 -29.60532 -66.96093 33072 ft 496 kts 20°
2026-04-26 01:48 -29.54692 -66.91847 33073 ft 498 kts 20°
2026-04-26 01:49 -29.48835 -66.87593 33074 ft 499 kts 20°
2026-04-26 01:49 -29.42950 -66.83321 33079 ft 501 kts 20°
2026-04-26 01:50 -29.37084 -66.78973 33069 ft 505 kts 23°
2026-04-26 01:50 -29.32326 -66.75035 33070 ft 509 kts 25°
2026-04-26 01:51 -29.26639 -66.70171 33076 ft 510 kts 25°
2026-04-26 01:51 -29.20946 -66.65332 33069 ft 510 kts 25°
2026-04-26 01:52 -29.15229 -66.60528 33063 ft 509 kts 25°
2026-04-26 01:52 -29.09515 -66.55756 33047 ft 508 kts 25°
2026-04-26 01:53 -29.03814 -66.51000 33055 ft 506 kts 25°
2026-04-26 01:53 -28.98138 -66.46269 33040 ft 504 kts 24°
2026-04-26 01:54 -28.92478 -66.41558 33048 ft 503 kts 24°
2026-04-26 01:54 -28.86819 -66.36855 33047 ft 502 kts 24°
2026-04-26 01:55 -28.81205 -66.32197 33067 ft 504 kts 25°
2026-04-26 01:55 -28.75522 -66.27486 33010 ft 503 kts 25°
2026-04-26 01:56 -28.69900 -66.22824 33053 ft 496 kts 25°
2026-04-26 01:56 -28.64322 -66.18211 33074 ft 495 kts 24°
2026-04-26 01:57 -28.58740 -66.13610 33081 ft 496 kts 24°
2026-04-26 01:57 -28.53124 -66.08986 33073 ft 500 kts 25°
2026-04-26 01:58 -28.47486 -66.04345 33077 ft 501 kts 25°
2026-04-26 01:58 -28.42006 -65.99834 33013 ft 500 kts 25°
2026-04-26 01:59 -28.36402 -65.95222 33099 ft 495 kts 25°
2026-04-26 01:59 -28.30830 -65.90657 33059 ft 497 kts 25°
2026-04-26 02:00 -28.25227 -65.86072 33095 ft 497 kts 25°
2026-04-26 02:00 -28.19618 -65.81484 33097 ft 497 kts 25°
2026-04-26 02:01 -28.14012 -65.76903 33084 ft 496 kts 25°
2026-04-26 02:01 -28.08399 -65.72323 33056 ft 495 kts 25°
2026-04-26 02:02 -28.02858 -65.67805 33099 ft 494 kts 25°
2026-04-26 02:02 -27.97282 -65.63273 33073 ft 495 kts 25°
2026-04-26 02:03 -27.91687 -65.58726 33047 ft 495 kts 25°
2026-04-26 02:03 -27.86091 -65.54183 33062 ft 496 kts 25°
2026-04-26 02:04 -27.80482 -65.49635 33040 ft 495 kts 25°
2026-04-26 02:04 -27.74888 -65.45105 33037 ft 495 kts 25°
2026-04-26 02:04 -27.72019 -65.43009 33033 ft 484 kts 17°
2026-04-26 02:05 -27.69016 -65.41439 33038 ft 469 kts
2026-04-26 02:05 -27.62844 -65.39224 33039 ft 465 kts
2026-04-26 02:06 -27.56666 -65.37042 33041 ft 465 kts
2026-04-26 02:06 -27.50489 -65.34811 33019 ft 466 kts
2026-04-26 02:07 -27.44362 -65.32572 33039 ft 467 kts
2026-04-26 02:07 -27.38173 -65.30309 33041 ft 467 kts
2026-04-26 02:08 -27.31976 -65.28048 33037 ft 468 kts
2026-04-26 02:08 -27.25778 -65.25790 33043 ft 468 kts
2026-04-26 02:09 -27.19588 -65.23538 33041 ft 467 kts
2026-04-26 02:09 -27.13408 -65.21291 33046 ft 467 kts
2026-04-26 02:10 -27.07235 -65.19050 33058 ft 466 kts
2026-04-26 02:10 -27.01066 -65.16813 33066 ft 465 kts
2026-04-26 02:11 -26.94982 -65.14610 33073 ft 464 kts
2026-04-26 02:11 -26.88849 -65.12394 33078 ft 461 kts
2026-04-26 02:11 -26.85757 -65.11617 33054 ft 449 kts 356°
2026-04-26 02:12 -26.82655 -65.11419 33149 ft 443 kts 349°
2026-04-26 02:12 -26.79619 -65.11691 33365 ft 433 kts 340°
2026-04-26 02:12 -26.76661 -65.12281 33741 ft 429 kts 340°
2026-04-26 02:12 -26.73733 -65.12868 34077 ft 427 kts 340°
2026-04-26 02:13 -26.70787 -65.13457 34052 ft 432 kts 340°
2026-04-26 02:13 -26.64861 -65.14614 34037 ft 431 kts 340°
2026-04-26 02:14 -26.58959 -65.15742 34069 ft 429 kts 340°
2026-04-26 02:14 -26.53108 -65.16857 34078 ft 429 kts 340°
2026-04-26 02:15 -26.47203 -65.17982 34084 ft 430 kts 340°
2026-04-26 02:15 -26.41297 -65.19106 34082 ft 430 kts 340°
2026-04-26 02:16 -26.35393 -65.20228 34086 ft 429 kts 341°
2026-04-26 02:16 -26.29506 -65.21345 34086 ft 429 kts 341°
2026-04-26 02:17 -26.23622 -65.22461 34087 ft 429 kts 341°
2026-04-26 02:17 -26.17739 -65.23576 34101 ft 428 kts 341°
2026-04-26 02:18 -26.11864 -65.24688 34092 ft 428 kts 341°
2026-04-26 02:18 -26.06022 -65.25793 34108 ft 428 kts 341°
2026-04-26 02:19 -26.00146 -65.26903 34105 ft 428 kts 341°
2026-04-26 02:19 -25.94300 -65.28006 34099 ft 427 kts 341°
2026-04-26 02:20 -25.88448 -65.29109 34091 ft 425 kts 341°
2026-04-26 02:20 -25.82629 -65.30205 34114 ft 424 kts 342°
2026-04-26 02:21 -25.76789 -65.31307 34105 ft 427 kts 342°
2026-04-26 02:21 -25.70914 -65.32412 34113 ft 429 kts 342°
2026-04-26 02:22 -25.65049 -65.33512 34106 ft 431 kts 342°
2026-04-26 02:22 -25.59128 -65.34622 34114 ft 432 kts 342°
2026-04-26 02:23 -25.53189 -65.35734 34110 ft 433 kts 343°
2026-04-26 02:23 -25.47224 -65.36851 34097 ft 435 kts 343°
2026-04-26 02:24 -25.41259 -65.37966 34105 ft 434 kts 343°
2026-04-26 02:24 -25.35338 -65.39071 34097 ft 433 kts 343°
2026-04-26 02:25 -25.29395 -65.40180 34077 ft 432 kts 343°
2026-04-26 02:25 -25.23487 -65.41281 34103 ft 429 kts 343°
2026-04-26 02:26 -25.17601 -65.42378 34105 ft 429 kts 343°
2026-04-26 02:26 -25.11716 -65.43474 34124 ft 429 kts 343°
2026-04-26 02:27 -25.05865 -65.44563 34138 ft 429 kts 343°
2026-04-26 02:27 -24.99988 -65.45655 34134 ft 430 kts 344°
2026-04-26 02:28 -24.94088 -65.46750 34166 ft 431 kts 344°
2026-04-26 02:28 -24.88130 -65.47795 34152 ft 438 kts 349°
2026-04-26 02:29 -24.81927 -65.47313 34277 ft 459 kts
2026-04-26 02:29 -24.78828 -65.46350 34506 ft 464 kts 10°
2026-04-26 02:29 -24.75750 -65.45283 34840 ft 462 kts 11°
2026-04-26 02:29 -24.72697 -65.44213 35107 ft 460 kts 11°
2026-04-26 02:30 -24.69633 -65.43147 35124 ft 464 kts 11°
2026-04-26 02:30 -24.63451 -65.41028 35127 ft 465 kts 10°
2026-04-26 02:31 -24.57327 -65.38950 35115 ft 462 kts 10°
2026-04-26 02:31 -24.51185 -65.36878 35115 ft 462 kts 10°
2026-04-26 02:32 -24.45032 -65.34806 35111 ft 462 kts 10°
2026-04-26 02:32 -24.38899 -65.32741 35126 ft 459 kts 11°
2026-04-26 02:33 -24.32789 -65.30686 35116 ft 459 kts 11°
2026-04-26 02:33 -24.26729 -65.28650 35117 ft 458 kts 11°
2026-04-26 02:34 -24.20635 -65.26605 35122 ft 458 kts 11°
2026-04-26 02:34 -24.14540 -65.24561 35118 ft 458 kts 11°
2026-04-26 02:35 -24.08462 -65.22524 35093 ft 457 kts 11°
2026-04-26 02:35 -24.02377 -65.20487 35099 ft 457 kts 11°
2026-04-26 02:36 -23.96325 -65.18464 35086 ft 457 kts 11°
2026-04-26 02:36 -23.90275 -65.16440 35100 ft 453 kts 11°
2026-04-26 02:37 -23.84249 -65.14430 35098 ft 452 kts 11°
2026-04-26 02:37 -23.78213 -65.12420 35084 ft 453 kts 12°
2026-04-26 02:38 -23.72190 -65.10414 35083 ft 452 kts 12°
2026-04-26 02:38 -23.67179 -65.08746 35088 ft 453 kts 12°
2026-04-26 02:39 -23.61137 -65.06738 35078 ft 454 kts 12°
2026-04-26 02:39 -23.55115 -65.04737 35074 ft 455 kts 12°
2026-04-26 02:40 -23.49061 -65.02728 35073 ft 454 kts 13°
2026-04-26 02:40 -23.43013 -65.00722 35074 ft 454 kts 12°
2026-04-26 02:41 -23.37121 -64.98770 35065 ft 455 kts 12°
2026-04-26 02:41 -23.31051 -64.96762 35062 ft 455 kts 12°
2026-04-26 02:42 -23.25004 -64.94763 35068 ft 454 kts 12°
2026-04-26 02:42 -23.18997 -64.92778 35069 ft 454 kts 12°
2026-04-26 02:43 -23.09923 -64.89785 35066 ft 454 kts 12°
2026-04-26 02:43 -23.03878 -64.87792 35052 ft 453 kts 12°
2026-04-26 02:44 -22.97873 -64.85815 35061 ft 452 kts 12°
2026-04-26 02:44 -22.91862 -64.83839 35068 ft 450 kts 12°
2026-04-26 02:45 -22.85868 -64.81871 35054 ft 450 kts 13°
2026-04-26 02:45 -22.79871 -64.79904 35069 ft 450 kts 13°
2026-04-26 02:46 -22.73864 -64.77934 35066 ft 451 kts 13°
2026-04-26 02:46 -22.67849 -64.75964 35065 ft 452 kts 13°
2026-04-26 02:47 -22.61827 -64.73993 35059 ft 452 kts 13°
2026-04-26 02:47 -22.55839 -64.72034 35065 ft 451 kts 13°
2026-04-26 02:48 -22.49817 -64.70066 35054 ft 451 kts 13°
2026-04-26 02:48 -22.43807 -64.68104 35048 ft 451 kts 13°
2026-04-26 02:49 -22.37805 -64.66147 35072 ft 449 kts 13°
2026-04-26 02:49 -22.31824 -64.64199 35054 ft 449 kts 13°
2026-04-26 02:50 -22.25836 -64.62249 35057 ft 449 kts 13°
2026-04-26 02:50 -22.19887 -64.60318 35067 ft 449 kts 13°
2026-04-26 02:51 -22.13891 -64.58401 35061 ft 449 kts 13°
2026-04-26 02:51 -22.07896 -64.56489 35060 ft 450 kts 13°
2026-04-26 02:52 -22.01882 -64.54573 35063 ft 451 kts 13°
2026-04-26 02:52 -21.95884 -64.52660 35063 ft 453 kts 13°
2026-04-26 02:53 -21.89818 -64.50726 35061 ft 454 kts 13°
2026-04-26 02:53 -21.83752 -64.48793 35070 ft 456 kts 13°
2026-04-26 02:54 -21.77656 -64.46853 35052 ft 457 kts 13°
2026-04-26 02:54 -21.71570 -64.44918 35052 ft 457 kts 13°
2026-04-26 02:55 -21.65469 -64.42980 35061 ft 456 kts 13°
2026-04-26 02:55 -21.59413 -64.41059 35052 ft 457 kts 13°
2026-04-26 02:56 -21.53316 -64.39125 35054 ft 457 kts 13°
2026-04-26 02:56 -21.47227 -64.37195 35058 ft 456 kts 13°
2026-04-26 02:57 -21.41146 -64.35270 35045 ft 455 kts 14°
2026-04-26 02:57 -21.35084 -64.33353 35042 ft 454 kts 14°
2026-04-26 02:58 -21.29035 -64.31422 35045 ft 452 kts 14°
2026-04-26 02:58 -21.23022 -64.29497 35035 ft 450 kts 14°
2026-04-26 02:59 -21.17018 -64.27576 35036 ft 449 kts 14°
2026-04-26 02:59 -21.11030 -64.25665 35025 ft 449 kts 14°
2026-04-26 03:00 -21.05055 -64.23759 35021 ft 447 kts 14°
2026-04-26 03:00 -20.99123 -64.21869 35012 ft 446 kts 14°
2026-04-26 03:01 -20.93210 -64.19988 35025 ft 447 kts 14°
2026-04-26 03:01 -20.87245 -64.18090 35025 ft 448 kts 14°
2026-04-26 03:02 -20.81252 -64.16185 35023 ft 449 kts 14°
2026-04-26 03:02 -20.75242 -64.14276 35029 ft 451 kts 14°
2026-04-26 03:03 -20.69213 -64.12362 35016 ft 452 kts 14°
2026-04-26 03:03 -20.63169 -64.10442 35014 ft 454 kts 14°
2026-04-26 03:04 -20.57153 -64.08521 35009 ft 454 kts 14°
2026-04-26 03:04 -20.51094 -64.06584 35014 ft 454 kts 14°
2026-04-26 03:05 -20.45036 -64.04651 35006 ft 454 kts 14°
2026-04-26 03:05 -20.38989 -64.02723 35007 ft 453 kts 14°
2026-04-26 03:06 -20.32954 -64.00802 35001 ft 451 kts 14°
2026-04-26 03:06 -20.27123 -63.98946 35008 ft 450 kts 14°
2026-04-26 03:07 -20.21120 -63.97038 34994 ft 450 kts 14°
2026-04-26 03:07 -20.15116 -63.95131 34991 ft 450 kts 14°
2026-04-26 03:08 -20.09167 -63.93242 34987 ft 449 kts 14°
2026-04-26 03:08 -20.03163 -63.91337 34991 ft 449 kts 14°
2026-04-26 03:09 -19.97199 -63.89446 34989 ft 449 kts 14°
2026-04-26 03:09 -19.91204 -63.87543 34990 ft 450 kts 15°
2026-04-26 03:10 -19.85200 -63.85631 34984 ft 450 kts 15°
2026-04-26 03:10 -19.79189 -63.83713 34974 ft 450 kts 15°
2026-04-26 03:11 -19.76197 -63.82758 34715 ft 450 kts 15°
2026-04-26 03:11 -19.73216 -63.81807 34372 ft 444 kts 15°
2026-04-26 03:11 -19.70269 -63.80867 33963 ft 440 kts 15°
2026-04-26 03:11 -19.67385 -63.79948 33525 ft 436 kts 15°
2026-04-26 03:12 -19.64487 -63.79025 33083 ft 432 kts 15°
2026-04-26 03:12 -19.61622 -63.78114 32660 ft 428 kts 15°
2026-04-26 03:12 -19.58779 -63.77210 32248 ft 425 kts 15°
2026-04-26 03:12 -19.55957 -63.76312 31840 ft 421 kts 15°
2026-04-26 03:13 -19.53163 -63.75424 31442 ft 418 kts 15°
2026-04-26 03:13 -19.50380 -63.74540 31040 ft 415 kts 15°
2026-04-26 03:13 -19.47624 -63.73665 30634 ft 413 kts 15°
2026-04-26 03:13 -19.44877 -63.72793 30242 ft 410 kts 15°
2026-04-26 03:14 -19.42150 -63.71928 29798 ft 408 kts 15°
2026-04-26 03:14 -19.39429 -63.71065 29346 ft 405 kts 15°
2026-04-26 03:14 -19.36744 -63.70213 28917 ft 401 kts 15°
2026-04-26 03:14 -19.34080 -63.69368 28502 ft 398 kts 15°
2026-04-26 03:15 -19.31443 -63.68532 28097 ft 394 kts 15°
2026-04-26 03:15 -19.28821 -63.67702 27699 ft 391 kts 15°
2026-04-26 03:15 -19.26223 -63.66878 27305 ft 388 kts 15°
2026-04-26 03:15 -19.23679 -63.66073 26916 ft 385 kts 15°
2026-04-26 03:16 -19.21119 -63.65263 26530 ft 383 kts 15°
2026-04-26 03:16 -19.18574 -63.64457 26136 ft 381 kts 15°
2026-04-26 03:16 -19.16044 -63.63657 25751 ft 379 kts 15°
2026-04-26 03:16 -19.13527 -63.62862 25355 ft 377 kts 15°
2026-04-26 03:17 -19.11017 -63.62068 24972 ft 376 kts 15°
2026-04-26 03:17 -19.08512 -63.61277 24564 ft 375 kts 15°
2026-04-26 03:17 -19.06020 -63.60489 24173 ft 374 kts 15°
2026-04-26 03:17 -19.03528 -63.59702 23789 ft 373 kts 15°
2026-04-26 03:18 -19.01040 -63.58916 23374 ft 372 kts 15°
2026-04-26 03:18 -18.98588 -63.58143 22950 ft 369 kts 15°
2026-04-26 03:18 -18.96133 -63.57368 22552 ft 367 kts 15°
2026-04-26 03:18 -18.93694 -63.56598 22168 ft 365 kts 15°
2026-04-26 03:19 -18.91276 -63.55834 21784 ft 362 kts 15°
2026-04-26 03:19 -18.88925 -63.54951 21325 ft 363 kts 20°
2026-04-26 03:19 -18.86596 -63.53923 20917 ft 363 kts 22°
2026-04-26 03:19 -18.84295 -63.52857 20550 ft 361 kts 22°
2026-04-26 03:20 -18.82002 -63.51787 20228 ft 359 kts 22°
2026-04-26 03:20 -18.79726 -63.50732 20001 ft 355 kts 22°
2026-04-26 03:20 -18.77466 -63.49694 19771 ft 354 kts 22°
2026-04-26 03:20 -18.75211 -63.48667 19467 ft 351 kts 22°
2026-04-26 03:21 -18.72967 -63.47650 19136 ft 350 kts 22°
2026-04-26 03:21 -18.70734 -63.46641 18772 ft 350 kts 22°
2026-04-26 03:21 -18.68491 -63.45631 18401 ft 350 kts 22°
2026-04-26 03:21 -18.66247 -63.44621 17983 ft 351 kts 22°
2026-04-26 03:22 -18.63995 -63.43609 17593 ft 349 kts 22°
2026-04-26 03:22 -18.61765 -63.42606 17228 ft 348 kts 22°
2026-04-26 03:22 -18.59573 -63.41621 16869 ft 346 kts 21°
2026-04-26 03:22 -18.57362 -63.40629 16515 ft 344 kts 21°
2026-04-26 03:23 -18.55159 -63.39640 16155 ft 342 kts 21°
2026-04-26 03:23 -18.52971 -63.38658 15795 ft 341 kts 21°
2026-04-26 03:23 -18.50792 -63.37680 15430 ft 339 kts 21°
2026-04-26 03:23 -18.48627 -63.36709 15059 ft 338 kts 21°
2026-04-26 03:24 -18.46466 -63.35740 14700 ft 336 kts 21°
2026-04-26 03:24 -18.44318 -63.34777 14332 ft 335 kts 21°
2026-04-26 03:24 -18.42178 -63.33819 13985 ft 333 kts 21°
2026-04-26 03:24 -18.40047 -63.32864 13621 ft 331 kts 21°
2026-04-26 03:25 -18.37935 -63.31918 13222 ft 329 kts 21°
2026-04-26 03:25 -18.36547 -63.31296 12991 ft 327 kts 21°
2026-04-26 03:25 -18.34457 -63.30360 12623 ft 325 kts 21°
2026-04-26 03:25 -18.32387 -63.29433 12268 ft 322 kts 21°
2026-04-26 03:26 -18.29665 -63.28215 11807 ft 319 kts 20°
2026-04-26 03:26 -18.28287 -63.27599 11568 ft 317 kts 20°
2026-04-26 03:26 -18.26264 -63.26694 11223 ft 315 kts 20°
2026-04-26 03:26 -18.23609 -63.25506 10770 ft 312 kts 20°
2026-04-26 03:27 -18.22264 -63.24905 10528 ft 310 kts 20°
2026-04-26 03:27 -18.20312 -63.24032 10288 ft 297 kts 20°
2026-04-26 03:27 -18.18457 -63.23200 10137 ft 281 kts 19°
2026-04-26 03:27 -18.16700 -63.22413 10022 ft 270 kts 19°
2026-04-26 03:28 -18.14986 -63.21648 9817 ft 266 kts 19°
2026-04-26 03:28 -18.13305 -63.20899 9535 ft 265 kts 19°
2026-04-26 03:28 -18.11606 -63.20142 9247 ft 263 kts 18°
2026-04-26 03:28 -18.09925 -63.19393 8970 ft 262 kts 18°
2026-04-26 03:29 -18.08253 -63.18648 8693 ft 261 kts 18°
2026-04-26 03:29 -18.06588 -63.17906 8411 ft 259 kts 18°
2026-04-26 03:29 -18.04929 -63.17166 8132 ft 258 kts 18°
2026-04-26 03:29 -18.03276 -63.16430 7858 ft 257 kts 18°
2026-04-26 03:30 -18.01626 -63.15694 7574 ft 257 kts 18°
2026-04-26 03:30 -17.99990 -63.14965 7302 ft 257 kts 18°
2026-04-26 03:30 -17.98342 -63.14231 7018 ft 257 kts 18°
2026-04-26 03:30 -17.96699 -63.13499 6744 ft 256 kts 18°
2026-04-26 03:31 -17.95056 -63.12767 6443 ft 257 kts 19°
2026-04-26 03:31 -17.93412 -63.12035 6157 ft 256 kts 19°
2026-04-26 03:31 -17.91795 -63.11315 5874 ft 255 kts 19°
2026-04-26 03:31 -17.90165 -63.10589 5598 ft 254 kts 19°
2026-04-26 03:32 -17.88543 -63.09866 5321 ft 253 kts 19°
2026-04-26 03:32 -17.87005 -63.08978 5133 ft 249 kts 33°
2026-04-26 03:32 -17.85691 -63.07878 5061 ft 236 kts 33°
2026-04-26 03:32 -17.84425 -63.06843 5000 ft 223 kts 33°
2026-04-26 03:33 -17.83230 -63.05880 4902 ft 210 kts 32°
2026-04-26 03:33 -17.82106 -63.04978 4814 ft 196 kts 32°
2026-04-26 03:33 -17.81034 -63.04158 4639 ft 184 kts 23°
2026-04-26 03:33 -17.79856 -63.03897 4452 ft 169 kts 356°
2026-04-26 03:34 -17.78712 -63.04121 4095 ft 173 kts 333°
2026-04-26 03:34 -17.77697 -63.04690 3890 ft 156 kts 332°
2026-04-26 03:34 -17.76804 -63.05226 3681 ft 138 kts 329°
2026-04-26 03:34 -17.76009 -63.05743 3501 ft 132 kts 328°
2026-04-26 03:35 -17.75242 -63.06254 3333 ft 130 kts 328°
2026-04-26 03:35 -17.74483 -63.06764 3172 ft 130 kts 327°
2026-04-26 03:35 -17.73720 -63.07280 3014 ft 130 kts 327°
2026-04-26 03:35 -17.72962 -63.07792 2843 ft 129 kts 327°
2026-04-26 03:36 -17.72204 -63.08304 2681 ft 129 kts 327°
2026-04-26 03:36 -17.71448 -63.08815 2516 ft 129 kts 327°
2026-04-26 03:36 -17.70695 -63.09325 2353 ft 129 kts 327°
2026-04-26 03:36 -17.69941 -63.09834 2184 ft 129 kts 327°
2026-04-26 03:37 -17.69185 -63.10345 2027 ft 130 kts 327°
2026-04-26 03:37 -17.68406 -63.10873 1861 ft 138 kts 328°
2026-04-26 03:37 -17.67582 -63.11429 1686 ft 142 kts 328°
2026-04-26 03:37 -17.66757 -63.11992 1485 ft 142 kts 327°
2026-04-26 03:38 -17.65934 -63.12578 1304 ft 142 kts 329°
2026-04-26 03:38 -17.65137 -63.13104 1229 ft 113 kts 328°
2026-04-26 03:38 -17.64651 -63.13427 1229 ft 62 kts 328°
2026-04-26 03:38 -17.64296 -63.13662 1226 ft 57 kts 328°
2026-04-26 03:39 -17.63982 -63.13874 1223 ft 44 kts 327°
2026-04-26 03:39 -17.63911 -63.14001 1224 ft 15 kts 238°
2026-04-26 03:39 -17.63933 -63.14040 1225 ft 0 kts 238°
2026-04-26 03:40 -17.63946 -63.14060 1225 ft 9 kts 232°
2026-04-26 03:40 -17.64027 -63.14070 1226 ft 17 kts 153°
2026-04-26 03:40 -17.64144 -63.13996 1226 ft 21 kts 149°
2026-04-26 03:41 -17.64265 -63.13920 1226 ft 20 kts 149°
2026-04-26 03:41 -17.64379 -63.13862 1227 ft 17 kts 192°
2026-04-26 03:41 -17.64454 -63.13948 1227 ft 16 kts 236°
2026-04-26 03:41 -17.64527 -63.14025 1227 ft 16 kts 179°
2026-04-26 03:42 -17.64614 -63.13972 1227 ft 10 kts 146°
2026-04-26 03:42 -17.64662 -63.13930 1227 ft 7 kts 105°
2026-04-26 03:42 -17.64644 -63.13896 1227 ft 5 kts 54°
2026-04-26 03:42 -17.64630 -63.13877 1227 ft 3 kts 49°
2026-04-26 03:43 -17.64625 -63.13872 1227 ft 0 kts 49°